St. Charles, IL

9:32 PM CDT on April 25, 2017 (GMT -0500)
Saint Charles County Smartt

Weather History for KSET - November, 2012

Change the Weather History Date:

Sunday, November 25, 2012

  Actual Average (KSTL) Record (KSTL)
Temperature  
Mean Temperature 42 °F -  
Max Temperature 55 °F 51 °F 74 °F (1990)
Min Temperature 28 °F 34 °F 4 °F (1950)
Degree Days  
Heating Degree Days 24    
Moisture  
Dew Point 27 °F    
Average Humidity 59    
Maximum Humidity 82    
Minimum Humidity 35    
Precipitation  
Precipitation 0.00 in - - ()
Sea Level Pressure  
Sea Level Pressure 29.97 in    
Wind  
Wind Speed 6 mph (NNE)    
Max Wind Speed 14 mph    
Max Gust Speed -    
Visibility 10 miles    
Events      
Averages and records for this station are not official NWS values.
T = Trace of Precipitation, MM = Missing Value Source: NWS Daily Summary

Daily Weather History Graph

Daily Weather History Graph

Search for Another Location

Airport or City:

Trip Planner

Search our weather history database for the weather conditions in past years. The results will help you decide how hot, cold, wet, or windy it might be!

Date:

Astronomy

Nov. 25, 2012 Rise Set
Actual Time 6:55 AM CST 4:41 PM CST
Civil Twilight 6:26 AM CST 5:10 PM CST
Nautical Twilight 5:53 AM CST 5:43 PM CST
Astronomical Twilight 5:21 AM CST 6:15 PM CST
Moon 2:57 PM CST (11/25) 4:10 AM CST (11/25)
Length of Visible Light 10h 44m
Length of Day
9h 45m
Waxing Gibbous, 93% of the Moon is Illuminated
Nov 25
Waxing Gibbous
Nov 28
Full
Dec 6
Last Quarter
Dec 13
New
Dec 19
First Quarter

Hourly Weather History & Observations

Time (CST) Temp. Windchill Dew Point Humidity Pressure Visibility Wind Dir Wind Speed Gust Speed Precip Events Conditions
12:54 AM 30.9 °F 24.3 °F 25.0 °F 79% 30.01 in 10.0 mi East 6.9 mph - N/A   Clear
1:54 AM 28.9 °F 22.8 °F 23.0 °F 78% 29.99 in 10.0 mi ESE 5.8 mph - N/A   Clear
2:54 AM 28.0 °F 21.7 °F 23.0 °F 81% 29.97 in 10.0 mi ESE 5.8 mph - N/A   Clear
3:54 AM 32.0 °F 27.5 °F 27.0 °F 82% 29.96 in 10.0 mi East 4.6 mph - N/A   Scattered Clouds
4:54 AM 32.0 °F - 25.0 °F 75% 29.95 in 10.0 mi Calm Calm - N/A   Clear
5:54 AM 30.0 °F 26.5 °F 25.0 °F 82% 29.95 in 10.0 mi SE 3.5 mph - N/A   Clear
6:54 AM 30.9 °F 26.2 °F 24.1 °F 76% 29.95 in 10.0 mi South 4.6 mph - N/A   Clear
7:54 AM 36.0 °F 32.1 °F 25.0 °F 64% 29.96 in 10.0 mi SSW 4.6 mph - N/A   Clear
8:54 AM 43.0 °F 39.5 °F 25.0 °F 49% 29.97 in 10.0 mi WSW 5.8 mph - N/A   Clear
9:54 AM 48.0 °F - 25.0 °F 41% 29.96 in 10.0 mi WNW 6.9 mph - N/A   Clear
10:54 AM 50.0 °F - 25.0 °F 38% 29.95 in 10.0 mi WNW 8.1 mph - N/A   Clear
11:54 AM 52.0 °F - 26.1 °F 37% 29.92 in 10.0 mi West 6.9 mph - N/A   Clear
12:54 PM 53.1 °F - 27.0 °F 37% 29.92 in 10.0 mi WSW 6.9 mph - N/A   Clear
1:54 PM 54.0 °F - 27.0 °F 35% 29.92 in 10.0 mi WNW 3.5 mph - N/A   Clear
2:54 PM 55.0 °F - 28.0 °F 35% 29.91 in 10.0 mi West 3.5 mph - N/A   Clear
3:54 PM 55.0 °F - 28.0 °F 35% 29.94 in 10.0 mi West 6.9 mph - N/A   Clear
4:54 PM 50.0 °F - 28.0 °F 43% 29.94 in 10.0 mi Calm Calm - N/A   Clear
5:54 PM 43.0 °F 40.3 °F 28.9 °F 58% 29.98 in 10.0 mi NNE 4.6 mph - N/A   Clear
6:54 PM 39.0 °F 34.0 °F 28.9 °F 67% 30.00 in 10.0 mi NNE 6.9 mph - N/A   Clear
7:54 PM 43.0 °F 37.2 °F 30.0 °F 60% 30.01 in 10.0 mi NNE 10.4 mph - N/A   Clear
8:54 PM 42.1 °F 34.9 °F 28.9 °F 60% 30.02 in 10.0 mi NNE 13.8 mph - N/A   Clear
9:54 PM 41.0 °F 34.3 °F 28.9 °F 62% 30.04 in 10.0 mi NNE 11.5 mph - N/A   Clear
10:54 PM 39.9 °F 37.8 °F 28.0 °F 63% 30.07 in 10.0 mi NE 3.5 mph - N/A   Clear
11:54 PM 35.1 °F 29.3 °F 27.0 °F 72% 30.08 in 10.0 mi ENE 6.9 mph - N/A   Clear